Miscellaneous Local Product
Issued by NWS Hastings, NE

Home | Current Version | Previous Version | Text Only | Print | Product List | Glossary On
Versions: 1 2 3 4 5 6 7 8 9 10 11 12 13 14 15 16 17 18 19 20 21 22 23 24 25 26 27 28 29 30 31 32 33 34 35 36 37 38 39 40 41 42 43 44 45 46 47 48 49 50
000
AXUS43 KGID 020802
MISGRI

GID CWA HOURLY WEATHER ROUNDUP
NATIONAL WEATHER SERVICE HASTINGS NE
300 AM CDT THU JUL 02 2015

NOTE: "FAIR" INDICATES FEW OR NO CLOUDS BELOW 12,000 FEET WITH NO
SIGNIFICANT WEATHER AND/OR OBSTRUCTIONS TO VISIBILITY.

...SOUTH CENTRAL NEBRASKA...

CITY           SKY/WX    TMP DP  RH WIND       PRES   REMARKS
GRAND ISLAND   MOCLDY    69  67  93 E8        29.93S
HASTINGS       MOCLDY    70  68  93 E8        29.92R
KEARNEY        CLOUDY    70  66  88 E5        29.93R

...NEBRASKA PANHANDLE...

CITY           SKY/WX    TMP DP  RH WIND       PRES   REMARKS
CHADRON        LGT RAIN  62  59  90 S9        30.11F FOG
ALLIANCE       TSTM      58  56  93 NE22G30   30.16R FOG
SCOTTSBLUFF    LGT RAIN  61  56  83 NE24G39   30.16R
SIDNEY         PTCLDY    62  59  90 S8        30.08F

...WESTERN AND NORTH CENTRAL NEBRASKA...

CITY           SKY/WX    TMP DP  RH WIND       PRES   REMARKS
VALENTINE      CLOUDY    65  64  97 W6        30.01R
BROKEN BOW     CLOUDY    69  67  93 CALM      29.97R FOG
IMPERIAL       MOCLDY    69  59  70 CALM      29.98S
NORTH PLATTE   CLOUDY    68  63  84 VRB5      29.98R
MCCOOK         CLOUDY    77  60  55 W10       29.94R

...EASTERN NEBRASKA...

CITY           SKY/WX    TMP DP  RH WIND       PRES   REMARKS
NORFOLK        CLOUDY    66  64  93 E6        29.95R
SO SIOUX CITY  CLEAR     61  53  75 E8        29.96R
TEKAMAH        MOCLDY    65  59  81 E8        29.94S
COLUMBUS       MOCLDY   N/A N/A N/A E5        29.92S
OMAHA EPPLEY   PTCLDY    67  60  78 E8        29.92F
OFFUTT AFB     PTCLDY    67  60  76 E7        29.91F
LINCOLN        CLOUDY    69  65  86 E8        29.92F
FALLS CITY     CLOUDY    70  67  90 E7        29.88F

...NORTHERN KANSAS...

CITY           SKY/WX    TMP DP  RH WIND       PRES   REMARKS
GOODLAND       PTCLDY    64  59  83 N8        30.01S
HILL CITY      CLOUDY    72  64  76 N6        29.92R
NORTON         SUNNY     70  63  78 W5        29.93R
PHILLIPSBURG   CLEAR     75  70  83 NE5       29.89S
SMITH CENTER   CLEAR     72  66  83 NE9       29.89S
HAYS           MOCLDY    73  63  68 E5        29.88F
RUSSELL        MOCLDY    71  69  93 NE8       29.85F
CONCORDIA      CLOUDY    73  70  90 E10G20    29.88R
SALINA         MOCLDY    78  71  79 E8        29.85S
TOPEKA         CLOUDY    76  71  85 NE6       29.84S



USA.gov is the U.S. government's official web portal to all federal, state and local government web resources and services.